Race Analysis

 :: S47

Ver o tópico anterior Ver o tópico seguinte Ir em baixo

Race Analysis

Mensagem por Paulo Coutinho em Dom Maio 24, 2015 8:01 am

Monte Carlo (Monaco), Season 47


Lap Lap time Pos Tyres Weather Temp (°) Hum (%) Events
0 - 29 Extra Soft Partially Cloudy 5 18 -
1 1:40.273 34 Extra Soft Partially Cloudy 5 18 -
2 1:26.698 34 Extra Soft Partially Cloudy 5 18 -
3 1:26.048 34 Extra Soft Partially Cloudy 5 18 -
4 1:25.022 34 Extra Soft Partially Cloudy 5 18 -
5 1:25.849 34 Extra Soft Partially Cloudy 5 17 -
6 1:24.986 34 Extra Soft Partially Cloudy 5 17 -
7 1:25.421 34 Extra Soft Sunny 6 17 -
8 1:24.628 34 Extra Soft Sunny 7 17 -
9 1:25.652 34 Extra Soft Sunny 8 17 -
10 1:25.645 34 Extra Soft Sunny 8 17 -
11 1:25.461 34 Extra Soft Sunny 8 17 -
12 1:24.581 34 Extra Soft Sunny 8 17 -
13 1:25.016 34 Extra Soft Sunny 8 17 -
14 1:24.530 33 Extra Soft Sunny 9 16 -
15 1:24.908 33 Extra Soft Sunny 9 16 -
16 1:25.394 34 Extra Soft Sunny 10 15 -
17 1:25.287 33 Extra Soft Sunny 10 15 -
18 1:24.454 33 Extra Soft Sunny 10 15 -
19 1:25.128 32 Extra Soft Sunny 10 15 -
20 1:24.712 31 Extra Soft Sunny 11 15 -
21 1:24.929 30 Extra Soft Sunny 11 15 -
22 1:24.576 30 Extra Soft Sunny 11 15 -
23 1:24.971 30 Extra Soft Sunny 11 14 -
24 1:24.461 30 Extra Soft Sunny 11 14 -
25 1:24.968 28 Extra Soft Sunny 11 14 -
26 1:24.564 28 Extra Soft Sunny 11 14 -
27 1:24.802 28 Extra Soft Sunny 11 14 -
28 1:24.560 26 Extra Soft Sunny 11 14 -
29 1:24.543 25 Extra Soft Sunny 10 14 -
30 1:24.934 25 Extra Soft Sunny 10 14 -
31 1:24.429 25 Extra Soft Sunny 9 14 -
32 1:29.688 27 Extra Soft Sunny 8 14 Driver mistake
33 1:23.985 27 Extra Soft Sunny 7 13 -
34 1:24.001 26 Extra Soft Sunny 6 12 -
35 1:23.725 26 Extra Soft Partially Cloudy 7 12 -
36 1:24.067 25 Extra Soft Partially Cloudy 7 12 -
37 1:24.224 25 Extra Soft Partially Cloudy 8 12 -
38 1:24.769 25 Extra Soft Partially Cloudy 9 12 -
39 1:24.908 24 Extra Soft Partially Cloudy 10 12 -
40 1:25.485 22 Extra Soft Partially Cloudy 10 12 -
41 1:34.915 23 Extra Soft Partially Cloudy 10 12 Pit
42 1:54.728 31 Extra Soft Partially Cloudy 10 12 -
43 1:24.654 29 Extra Soft Partially Cloudy 10 12 -
44 1:24.629 29 Extra Soft Partially Cloudy 10 12 -
45 1:24.644 29 Extra Soft Partially Cloudy 10 12 -
46 1:24.584 29 Extra Soft Partially Cloudy 10 12 -
47 1:24.607 29 Extra Soft Partially Cloudy 10 12 -
48 1:24.624 29 Extra Soft Partially Cloudy 10 12 -
49 1:24.744 29 Extra Soft Partially Cloudy 9 12 -
50 1:24.744 29 Extra Soft Partially Cloudy 8 12 -
51 1:24.782 29 Extra Soft Partially Cloudy 7 11 -
52 1:24.484 29 Extra Soft Partially Cloudy 7 11 -
53 1:24.609 28 Extra Soft Partially Cloudy 7 11 -
54 1:24.377 28 Extra Soft Partially Cloudy 7 11 -
55 1:24.311 26 Extra Soft Partially Cloudy 7 11 -
56 1:24.316 26 Extra Soft Partially Cloudy 7 11 -
57 1:24.897 26 Extra Soft Partially Cloudy 6 11 -
58 1:24.229 26 Extra Soft Partially Cloudy 6 11 -
59 1:25.110 26 Extra Soft Partially Cloudy 5 11 -
60 1:35.772 29 Extra Soft Partially Cloudy 5 11 Car problem, Pit
61 2:06.661 31 Extra Soft Partially Cloudy 4 11 -
62 1:25.076 31 Extra Soft Partially Cloudy 3 11 -
63 1:24.878 31 Extra Soft Partially Cloudy 3 11 -
64 1:24.861 31 Extra Soft Partially Cloudy 3 11 -
65 1:24.953 31 Extra Soft Partially Cloudy 3 11 -
66 1:24.805 31 Extra Soft Partially Cloudy 3 10 -
67 1:24.591 31 Extra Soft Partially Cloudy 3 10 -
68 1:24.707 31 Extra Soft Partially Cloudy 3 10 -
69 1:24.647 31 Extra Soft Partially Cloudy 3 10 -
70 1:24.718 30 Extra Soft Partially Cloudy 3 10 -
71 1:24.467 30 Extra Soft Partially Cloudy 3 10 -
72 1:24.516 30 Extra Soft Partially Cloudy 3 10 -
73 1:24.357 30 Extra Soft Partially Cloudy 3 10 -
74 1:24.474 30 Extra Soft Partially Cloudy 3 10 -
75 1:24.466 30 Extra Soft Partially Cloudy 3 10 -
76 1:24.338 30 Extra Soft Partially Cloudy 3 10 -
77 1:24.334 30 Extra Soft Partially Cloudy 3 10 -
78 1:24.269 30 Extra Soft Partially Cloudy 3 10 -


Risks used:
Overtake Defend Clear & dry Clear & wet Malfunct
0 0 30 30 30

Setup used:
Front wing Rear wing Engine Brakes Gear Suspension
696 846 507 304 371 709

Cha Eng FWing RWing Underb Sidep Cool Gear Bra Susp Elec
Car parts level: 6 3 6 6 7 7 7 5 6 6 6
Car parts wear (at the start) (%): 21 73 52 40 35 12 30 81 35 65 79
Car parts wear (at the finish) (%): 28 83 85 73 51 16 37 98 63 87 85

Start fuel (liters): 94

Pit Pitstop reason Tyres condition (%) Fuel left (%) Refilled to (liters) Pit time (sec)
Stop 1 (Lap 41): No more fuel was left 6 1 94 liters 20.729
Stop 2 (Lap 60): The car had a technical problem 57 28 92 liters 32.268


Technical problems
Lap 60 The car electronics were malfunctioning and had to be reset

Tyres condition after finish (%): 62

Muito boa corrida da equipe, incluindo novo recorde de pontos alcançados numa corrida.  cheers  cheers
Sutil em grande, Frade com bom nível assim como boa corrida do Miranda.
Os outros todos estiveram bem, eu tive um problema no carro que espero não se repita na próxima corrida.
avatar
Paulo Coutinho

Mensagens : 1700
Data de inscrição : 31/03/2015
Idade : 44

Ver perfil do usuário

Voltar ao Topo Ir em baixo

Re: Race Analysis

Mensagem por Gabriel Miranda em Seg Maio 25, 2015 12:39 am

Monte Carlo (Monaco), Época 47


Volta Tempo volta Pos Pneus Tempo Temp (°) Hum (%) Ocorrências
0 - 6 Super Macios Parcial/nublado 5 18 -
1 1:32.172 10 Super Macios Parcial/nublado 5 18 -
2 1:26.608 10 Super Macios Parcial/nublado 5 18 -
3 1:26.326 10 Super Macios Parcial/nublado 5 18 -
4 1:26.177 10 Super Macios Parcial/nublado 5 18 -
5 1:25.575 10 Super Macios Parcial/nublado 5 17 -
6 1:26.077 10 Super Macios Parcial/nublado 5 17 -
7 1:25.598 10 Super Macios Sol 6 17 -
8 1:26.871 10 Super Macios Sol 7 17 -
9 1:25.504 10 Super Macios Sol 8 17 -
10 1:25.493 10 Super Macios Sol 8 17 -
11 1:25.230 9 Super Macios Sol 8 17 -
12 1:26.712 9 Super Macios Sol 8 17 -
13 1:25.093 8 Super Macios Sol 8 17 -
14 1:25.784 8 Super Macios Sol 9 16 -
15 1:26.062 8 Super Macios Sol 9 16 -
16 1:24.914 8 Super Macios Sol 10 15 -
17 1:25.864 8 Super Macios Sol 10 15 -
18 1:25.433 8 Super Macios Sol 10 15 -
19 1:25.703 8 Super Macios Sol 10 15 -
20 1:25.100 8 Super Macios Sol 11 15 -
21 1:25.099 7 Super Macios Sol 11 15 -
22 1:24.689 7 Super Macios Sol 11 15 -
23 1:24.942 7 Super Macios Sol 11 14 -
24 1:25.594 7 Super Macios Sol 11 14 -
25 1:25.467 7 Super Macios Sol 11 14 -
26 1:25.010 6 Super Macios Sol 11 14 -
27 1:34.459 6 Super Macios Sol 11 14 Pit
28 2:05.265 15 Super Macios Sol 11 14 -
29 1:25.149 12 Super Macios Sol 10 14 -
30 1:25.351 11 Super Macios Sol 10 14 -
31 1:25.534 11 Super Macios Sol 9 14 -
32 1:24.898 11 Super Macios Sol 8 14 -
33 1:26.349 11 Super Macios Sol 7 13 -
34 1:25.953 11 Super Macios Sol 6 12 -
35 1:25.992 11 Super Macios Parcial/nublado 7 12 -
36 1:27.073 11 Super Macios Parcial/nublado 7 12 -
37 1:24.995 10 Super Macios Parcial/nublado 8 12 -
38 1:24.466 10 Super Macios Parcial/nublado 9 12 -
39 1:25.955 10 Super Macios Parcial/nublado 10 12 -
40 1:24.400 8 Super Macios Parcial/nublado 10 12 -
41 1:24.315 8 Super Macios Parcial/nublado 10 12 -
42 1:24.218 7 Super Macios Parcial/nublado 10 12 -
43 1:24.163 7 Super Macios Parcial/nublado 10 12 -
44 1:24.125 7 Super Macios Parcial/nublado 10 12 -
45 1:24.115 7 Super Macios Parcial/nublado 10 12 -
46 1:24.079 6 Super Macios Parcial/nublado 10 12 -
47 1:31.648 6 Super Macios Parcial/nublado 10 12 Erro do Piloto
48 1:24.248 6 Super Macios Parcial/nublado 10 12 -
49 1:24.388 6 Super Macios Parcial/nublado 9 12 -
50 1:23.977 5 Super Macios Parcial/nublado 8 12 -
51 1:24.273 5 Super Macios Parcial/nublado 7 11 -
52 1:25.041 5 Super Macios Parcial/nublado 7 11 -
53 1:25.074 4 Super Macios Parcial/nublado 7 11 -
54 1:34.848 7 Super Macios Parcial/nublado 7 11 Pit
55 1:59.841 8 Super Macios Parcial/nublado 7 11 -
56 1:25.151 5 Super Macios Parcial/nublado 7 11 -
57 1:24.901 5 Super Macios Parcial/nublado 6 11 -
58 1:24.863 5 Super Macios Parcial/nublado 6 11 -
59 1:25.092 5 Super Macios Parcial/nublado 5 11 -
60 1:24.937 5 Super Macios Parcial/nublado 5 11 -
61 1:24.795 5 Super Macios Parcial/nublado 4 11 -
62 1:24.807 5 Super Macios Parcial/nublado 3 11 -
63 1:25.095 5 Super Macios Parcial/nublado 3 11 -
64 1:24.986 5 Super Macios Parcial/nublado 3 11 -
65 1:24.799 5 Super Macios Parcial/nublado 3 11 -
66 1:24.817 5 Super Macios Parcial/nublado 3 10 -
67 1:24.834 5 Super Macios Parcial/nublado 3 10 -
68 1:24.587 5 Super Macios Parcial/nublado 3 10 -
69 1:24.843 5 Super Macios Parcial/nublado 3 10 -
70 1:24.823 5 Super Macios Parcial/nublado 3 10 -
71 1:24.644 5 Super Macios Parcial/nublado 3 10 -
72 1:24.395 5 Super Macios Parcial/nublado 3 10 -
73 1:24.471 5 Super Macios Parcial/nublado 3 10 -
74 1:24.233 5 Super Macios Parcial/nublado 3 10 -
75 1:24.330 4 Super Macios Parcial/nublado 3 10 -
76 1:24.327 4 Super Macios Parcial/nublado 3 10 -
77 1:24.291 4 Super Macios Parcial/nublado 3 10 -
78 1:24.217 4 Super Macios Parcial/nublado 3 10 -


Riscos usados:
Ultrapassagem Defesa Pista Livre e Seca Pista Livre e Chuva Avaria
20 20 50 50 50

Afinação usada:
Asa Dianteira Asa Traseira Motor Travões Caixa Suspensão
863 999 524 386 300 691

Cha Mot ADiant ATras Carroç Later Refrig Caixa Trav Susp Elec
Nível das peças: 5 5 5 5 5 5 5 5 5 5 5
Desgaste das Peças (no início) (%): 25 10 40 38 32 4 19 10 40 48 4
Desgaste das Peças (no final) (%): 37 24 81 79 54 13 31 32 76 77 15

Combustível inicíal (litros): 61

Pit Razão da paragem Estado pneus (%) Combust. restante (%) Reabast. até (litros) Tempo da paragem (seg)
Paragem 1 (Volta 27): Não havia mais combustível 9 0 61 litros 31.077
Paragem 2 (Volta 54): Não havia mais combustível 9 0 61 litros 25.493

Estado dos pneus após o final (%): 25

Combustível restante no final (litros): 7
avatar
Gabriel Miranda

Mensagens : 899
Data de inscrição : 29/12/2014
Idade : 44

Ver perfil do usuário

Voltar ao Topo Ir em baixo

Ver o tópico anterior Ver o tópico seguinte Voltar ao Topo

- Tópicos similares

 :: S47

 
Permissão deste fórum:
Você não pode responder aos tópicos neste fórum